[Date Prev][Date Next][Thread Prev][Thread Next] - [Date Index][Thread Index][Author Index]
Re: Current Mir 2 line Kep source?
- Subject: Re: [sarex] Current Mir 2 line Kep source?
- From: "Miles Mann" <Miles_Mann@xxxxxxxxxx>
- Date: Mon, 22 Feb 1999 12:06:15 -0500
Hi Pete:
This set 3.9 days old, 02/18/99 20:18:04.39 UTC
it shows mir arriving 2:40 seconds earlier than the current set of keps on
cellest from
02/17/99 04:36:30.70 UTC
The Mir station must have preformed another engin burn.
I found this set of keps on the Amsat web.
http://www.amsat.org/amsat/ftp/keps/current/nasa.all
Good luck
Miles WF1F
AO-10
1 14129U 83058B 99028.89688500 .00000059 00000-0 10000-3 0 5605
2 14129 27.0431 46.4455 6008699 285.7546 18.5079 2.05825647117524
UO-11
1 14781U 84021B 99048.42861091 .00000965 00000-0 16802-3 0 1304
2 14781 97.9127 18.2203 0010656 209.5760 150.4849 14.70209066800892
RS-10/11
1 18129U 87054A 99048.25078694 .00000070 00000-0 60229-4 0 06072
2 18129 082.9276 147.7927 0011458 335.9730 024.0890 13.72420012583914
FO-20
1 20480U 90013C 99048.66134754 -.00000015 00000-0 30313-4 0 1200
2 20480 99.0357 266.0783 0541070 75.4982 290.5489 12.83249335423009
AO-21
1 21087U 91006A 99049.26802423 .00000094 00000-0 82657-4 0 88
2 21087 82.9407 319.2860 0036533 7.2689 352.8988 13.74624321404106
RS-12/13
1 21089U 91007A 99048.85357115 .00000042 00000-0 28677-4 0 1343
2 21089 82.9221 185.7466 0030506 38.2485 322.0836 13.74121518403023
RS-15
1 23439U 94085A 99048.81612135 -.00000013 00000-0 83906-3 0 3655
2 23439 64.8162 245.4460 0153656 14.6910 345.8380 11.27533615170780
FO-29
1 24278U 96046B 99047.93987089 .00000007 00000-0 41377-4 0 02299
2 24278 098.5426 015.2423 0352227 045.6293 317.3132 13.52659279123551
RS-16
1 24744U 97010A 99049.76005317 .00049097 00000-0 94366-3 0 4173
2 24744 97.2331 316.0752 0007084 61.9614 298.2412 15.47761423109983
SO-33
1 25509U 98061B 99048.17756050 .00000667 00000-0 12679-3 0 00343
2 25509 031.4382 105.8547 0369022 173.7591 186.7804 14.23808429016494
UO-14
1 20437U 90005B 99048.71950341 .00000067 00000-0 42264-4 0 4181
2 20437 98.4664 125.4870 0010477 204.8559 155.2128 14.30114741473479
AO-16
1 20439U 90005D 99048.22582651 .00000094 00000-0 53027-4 0 02192
2 20439 098.4937 129.5852 0010715 210.8143 149.2412 14.30153020473427
DO-17
1 20440U 90005E 99049.19884087 .00000157 00000-0 76946-4 0 2105
2 20440 98.5010 131.9188 0010770 206.5458 153.5185 14.30306287473603
WO-18
1 20441U 90005F 99048.72286372 .00000088 00000-0 50636-4 0 2210
2 20441 98.4958 131.2551 0011480 209.0150 151.0410 14.30259324473532
LO-19
1 20442U 90005G 99048.77880315 .00000114 00000-0 60263-4 0 2153
2 20442 98.5007 132.3905 0011692 207.8632 152.1926 14.30385610473576
UO-22
1 21575U 91050B 99048.14245317 .00000132 00000-0 58118-4 0 09311
2 21575 098.2164 094.1894 0006600 223.5681 136.4988 14.37258210398097
KO-23
1 22077U 92052B 99048.77887491 -.00000037 00000-0 10000-3 0 8104
2 22077 66.0789 306.7711 0015480 251.4098 108.5233 12.86318257306282
AO-27
1 22825U 93061C 99049.22306343 .00000114 00000-0 63331-4 0 7042
2 22825 98.4748 117.5671 0007682 250.6590 109.3760 14.27854647281262
IO-26
1 22826U 93061D 99049.21338747 .00000136 00000-0 72066-4 0 7011
2 22826 98.4771 117.9865 0008384 254.8156 105.2098 14.27973019281288
KO-25
1 22828U 93061F 99049.65831454 .00000158 00000-0 80152-4 0 6810
2 22828 98.4703 118.5359 0009417 229.5461 130.4908 14.28335043249493
TO-31
1 25396U 98043C 99049.18407727 -.00000044 00000-0 00000 0 0 1132
2 25396 98.7683 123.4198 0002300 94.5801 265.5682 14.22330147 31700
GO-32
1 25397U 98043D 99048.21318818 -.00000044 00000-0 00000-0 0 01397
2 25397 098.7710 122.4111 0002114 080.7571 279.3846 14.22219524031586
NOAA-9
1 15427U 84123A 99049.71448354 .00000082 00000-0 66211-4 0 9039
2 15427 98.8351 125.0519 0015784 63.6605 296.6188 14.13988842731626
NOAA-10
1 16969U 86073A 99049.84250322 .00000257 00000-0 12757-3 0 8574
2 16969 98.5958 38.6257 0013938 26.7614 333.4292 14.25243528645702
MET-2/17
1 18820U 88005A 99048.90634246 -.00000016 00000-0 -27556-4 0 8104
2 18820 82.5408 350.8781 0018130 66.1468 294.1578 13.84812455558560
MET-3/2
1 19336U 88064A 99048.85992398 .00000051 00000-0 10000-3 0 7247
2 19336 82.5416 196.0085 0016366 320.9602 39.0328 13.16996809507901
NOAA-11
1 19531U 88089A 99049.66934331 .00000313 00000-0 16677-3 0 7319
2 19531 99.0703 103.8315 0011773 15.9248 344.2923 14.13292695536360
MET-2/18
1 19851U 89018A 99048.00043953 .00000074 00000-0 51912-4 0 07265
2 19851 082.5194 223.6206 0013546 114.5647 245.6926 13.84955012503722
MET-3/3
1 20305U 89086A 99048.39013322 .00000044 00000-0 10000-3 0 2461
2 20305 82.5396 170.3264 0007777 82.8318 277.3658 13.04431879445344
MET-2/19
1 20670U 90057A 99049.22381366 .00000070 00000-0 49812-4 0 8464
2 20670 82.5468 292.6643 0017332 37.5345 322.7022 13.84154174436767
MET-2/20
1 20826U 90086A 99048.56276386 .00000090 00000-0 67926-4 0 2349
2 20826 82.5240 228.1493 0012832 309.4277 50.5745 13.83670838423729
MET-3/4
1 21232U 91030A 99048.07850982 .00000050 00000-0 10000-3 0 01511
2 21232 082.5382 043.5458 0012059 247.3793 112.6052 13.16488162375812
NOAA-12
1 21263U 91032A 99049.89030680 .00000283 00000-0 14447-3 0 1622
2 21263 98.5320 55.1257 0012676 319.7938 40.2311 14.22956863403341
MET-3/5
1 21655U 91056A 99048.54283241 .00000051 00000-0 10000-3 0 1340
2 21655 82.5576 351.5873 0012499 254.1691 105.8048 13.16873582361043
MET-2/21
1 22782U 93055A 99048.74398150 .00000069 00000-0 49446-4 0 7095
2 22782 82.5507 293.9644 0022986 121.3408 239.0004 13.83138607275982
OKEAN-1/7
1 23317U 94066A 99048.53370762 .00000729 00000-0 10541-3 0 4036
2 23317 82.5423 241.4989 0026162 146.6410 213.6454 14.74637499234231
NOAA-14
1 23455U 94089A 99049.79962134 .00000369 00000-0 20177-3 0 8011
2 23455 99.0783 15.3334 0009755 12.5484 347.6389 14.11904880213244
SICH-1
1 23657U 95046A 99047.97621985 .00000714 00000-0 10438-3 0 03314
2 23657 082.5300 023.0621 0029425 121.9353 238.4734 14.74054718186392
NOAA-15
1 25338U 98030A 99049.64831726 .00000207 00000-0 92336-4 0 2561
2 25338 98.6897 81.2263 0010764 240.5860 119.4851 14.22862603 39954
RESURS
1 25394U 98043A 99048.88698091 -.00000044 00000-0 00000 0 0 3055
2 25394 98.7702 123.1600 0002064 49.6365 310.5026 14.22430595 31642
MIR
1 16609U 86017A 99049.84588420 .00168090 00000-0 12783-2 0 2365
2 16609 51.6592 230.2479 0014027 147.2140 212.9799 15.71115197742787
HUBBLE
1 20580U 90037B 99048.55776436 .00001885 00000-0 18731-3 0 1398
2 20580 28.4669 100.5916 0014230 61.6484 298.5542 14.87449445283977
GRO
1 21225U 91027B 99048.19790955 .00004400 00000-0 18149-3 0 6391
2 21225 28.4588 27.5980 0005039 79.0217 281.0948 15.21454262319213
UARS
1 21701U 91063B 99048.11439875 .00000625 00000-0 74548-4 0 00084
2 21701 056.9832 161.8715 0005083 105.0014 255.1591 14.97101519406323
POSAT
1 22829U 93061G 99048.21304547 .00000129 00000-0 68813-4 0 07044
2 22829 098.4729 117.2985 0009282 235.5789 124.4515 14.28330808281209
PO-34
1 25520U 98064B 99048.54072193 .00001862 00000-0 12161-3 0 400
2 25520 28.4635 152.9458 0007846 115.6006 244.5400 15.03298424 16680
ISS
1 25544U 98067A 99049.85701702 .00026439 00000-0 35570-3 0 3206
2 25544 51.5915 73.2501 0005152 129.7498 230.3921 15.57666788 14137
"pmarkham" <pmarkham@newsguy.com> on 02/22/99 10:37:52 AM
Please respond to pmarkham@newsguy.com
To: amsat-bb@AMSAT.Org
cc: sarex@AMSAT.Org (bcc: Miles Mann/PicTel)
Subject: [sarex] Current Mir 2 line Kep source?
I looking for a consistent source of current Mir 2 line Keplerian
elements. The latest of Kelso's
and Ransom's are from the 18? and are some 40 seconds off this morning.
With the relatively rapid
decay of MIR's orbit, using older elements results in noticeable signal
degradation due to
automated antenna tracking errors.
Is there some other source that is updated more often? Ron Parises's MIR
Keps post to amsat-bb is
sorely missed.
Pete/wa4hei
The meek will not inherit the Earth.
----
Via the sarex mailing list at AMSAT.ORG courtesy of AMSAT-NA.
To unsubscribe, send "unsubscribe sarex" to Majordomo@amsat.org
----
Via the sarex mailing list at AMSAT.ORG courtesy of AMSAT-NA.
To unsubscribe, send "unsubscribe sarex" to Majordomo@amsat.org
AMSAT Home